This demonstration page uses our WeatherBlox Daily Observations layout. Learn more.

Left ArrowRight Arrow

Hourly Observations for January 18, 2022

Temp ( °F °C ) Dew Point ( °F °C ) Humidity (%) Winds ( mph kmh ) Pressure ( in mb ) Visibility ( mi km ) Precip ( " mm )
12:52 am 00:52 Clear 26 -3.3 24 -4.4 92 92 SSE 9 15 29.80 1009 10 16 0.00 0.00
1:52 am 01:52 Clear 25 -3.9 22 -5.6 88 88 SSE 10 17 29.78 1008 10 16 0.00 0.00
2:52 am 02:52 Clear 27 -2.8 25 -3.9 92 92 SSE 9 15 29.77 1008 10 16 0.00 0.00
3:52 am 03:52 Clear 25 -3.9 23 -5 92 92 S 7 11 29.75 1008 10 16 0.00 0.00
4:52 am 04:52 Clear 25 -3.9 22 -5.6 88 88 SSE 8 13 29.74 1007 10 16 0.00 0.00
5:52 am 05:52 Mostly Cloudy 27 -2.8 24 -4.4 89 89 SE 8 13 29.73 1007 10 16 0.00 0.00
6:52 am 06:52 Partly Cloudy 26 -3.3 24 -4.4 92 92 SSE 9 15 29.73 1007 10 16 0.00 0.00
7:52 am 07:52 Partly Cloudy 28 -2.2 24 -4.4 85 85 SSE 12 19 29.72 1007 10 16 0.00 0.00
8:52 am 08:52 Partly Cloudy 28 -2.2 24 -4.4 85 85 SSE 10 17 29.71 1006 10 16 0.00 0.00
9:52 am 09:52 Partly Cloudy 32 0 27 -2.8 82 82 SSE 6 9 29.72 1007 10 16 0.00 0.00
10:52 am 10:52 Mostly Cloudy 37 2.8 29 -1.7 73 73 SSE 10 17 29.72 1006 10 16 0.00 0.00
11:52 am 11:52 Mostly Cloudy 38 3.3 30 -1.1 73 73 SSE 8 13 29.69 1006 10 16 0.00 0.00
12:52 pm 12:52 Mostly Cloudy 40 4.4 31 -0.6 70 70 SE 10 17 29.67 1005 10 16 0.00 0.00
1:52 pm 13:52 Mostly Cloudy 45 7.2 33 0.6 63 63 ESE 6 9 29.67 1005 10 16 0.00 0.00
2:52 pm 14:52 Mostly Cloudy 45 7.2 34 1.1 66 66 SE 5 7 29.67 1005 10 16 0.00 0.00
3:52 pm 15:52 Mostly Cloudy 45 7.2 35 1.7 68 68 SSE 6 9 29.69 1006 10 16 0.00 0.00
4:52 pm 16:52 Mostly Cloudy 44 6.7 34 1.1 68 68 S 5 7 29.71 1006 10 16 0.00 0.00
5:52 pm 17:52 Mostly Cloudy 45 7.2 34 1.1 66 66 N 6 9 29.77 1008 10 16 0.00 0.00
6:52 pm 18:52 Partly Cloudy 44 6.7 34 1.1 68 68 N 21 33 29.83 1010 10 16 0.00 0.00
7:52 pm 19:52 Partly Cloudy 40 4.4 32 0 73 73 N 23 37 29.88 1012 10 16 0.00 0.00
8:05 pm 20:05 Mostly Cloudy 39 3.9 32 0 76 76 NNW 21 33 29.91 1013 10 16 0.00 0.00
8:40 pm 20:40 Mostly Cloudy 37 2.8 31 -0.6 79 79 N 22 35 29.94 1014 10 16 0.00 0.00
8:52 pm 20:52 Mostly Cloudy 37 2.8 30 -1.1 76 76 N 20 31 29.93 1014 10 16 0.00 0.00
9:27 pm 21:27 Mostly Cloudy 35 1.7 27 -2.8 72 72 NNW 24 39 29.97 1015 10 16 0.00 0.00
9:52 pm 21:52 Mostly Cloudy 35 1.7 27 -2.8 72 72 N 25 41 29.97 1015 10 16 0.00 0.00
10:30 pm 22:30 Mostly Cloudy 33 0.6 26 -3.3 75 75 N 16 26 30.03 1017 10 16 0.00 0.00
10:52 pm 22:52 Mostly Cloudy 33 0.6 24 -4.4 70 70 NNW 28 44 30.02 1017 10 16 0.00 0.00
11:52 pm 23:52 Mostly Cloudy 26 -3.3 15 -9.4 63 63 NNW 29 46 30.09 1019 10 16 0.00 0.00

Powered by AerisWeather